TimeEDT,TemperatureF,Dew PointF,Humidity,Sea Level PressureIn,VisibilityMPH,Wind Direction,Wind SpeedMPH,Gust SpeedMPH,PrecipitationIn,Events,Conditions,WindDirDegrees,DateUTC
12:14 AM,39.2,33.8,81,30.35,10.0,Calm,Calm,-,N/A,,Clear,0,2013-05-26 04:14:00
12:35 AM,41.0,33.8,76,30.35,10.0,Calm,Calm,-,N/A,,Clear,0,2013-05-26 04:35:00
12:55 AM,39.2,33.8,81,30.35,10.0,NE,3.5,-,N/A,,Clear,50,2013-05-26 04:55:00
1:14 AM,39.2,32.0,75,30.34,10.0,NNE,3.5,-,N/A,,Clear,30,2013-05-26 05:14:00
1:35 AM,39.2,32.0,75,30.35,10.0,NNE,3.5,-,N/A,,Clear,30,2013-05-26 05:35:00
1:55 AM,39.2,30.2,70,30.35,10.0,Calm,Calm,-,N/A,,Clear,0,2013-05-26 05:55:00
2:14 AM,39.2,30.2,70,30.35,10.0,North,3.5,-,N/A,,Clear,360,2013-05-26 06:14:00
2:35 AM,41.0,30.2,65,30.35,10.0,Calm,Calm,-,N/A,,Clear,0,2013-05-26 06:35:00
2:54 AM,35.6,30.2,81,30.35,10.0,North,4.6,-,N/A,,Clear,10,2013-05-26 06:54:00
3:15 AM,37.4,30.2,75,30.34,10.0,North,3.5,-,N/A,,Clear,360,2013-05-26 07:15:00
3:34 AM,39.2,32.0,75,30.34,10.0,Calm,Calm,-,N/A,,Clear,0,2013-05-26 07:34:00
3:55 AM,35.6,30.2,81,30.34,10.0,North,3.5,-,N/A,,Clear,350,2013-05-26 07:55:00
4:15 AM,37.4,32.0,81,30.34,10.0,NNE,3.5,-,N/A,,Clear,20,2013-05-26 08:15:00
4:34 AM,35.6,30.2,81,30.34,10.0,North,3.5,-,N/A,,Clear,360,2013-05-26 08:34:00
4:55 AM,35.6,32.0,87,30.34,10.0,Calm,Calm,-,N/A,,Clear,0,2013-05-26 08:55:00
5:15 AM,35.6,30.2,81,30.34,10.0,Calm,Calm,-,N/A,,Clear,0,2013-05-26 09:15:00
5:34 AM,35.6,30.2,81,30.34,10.0,Calm,Calm,-,N/A,,Clear,0,2013-05-26 09:34:00
5:55 AM,37.4,32.0,81,30.36,10.0,Calm,Calm,-,N/A,,Clear,0,2013-05-26 09:55:00
6:15 AM,37.4,32.0,81,30.36,10.0,Calm,Calm,-,N/A,,Clear,0,2013-05-26 10:15:00
6:34 AM,35.6,30.2,81,30.36,10.0,NNE,4.6,-,N/A,,Clear,20,2013-05-26 10:34:00
6:55 AM,37.4,33.8,87,30.36,10.0,North,4.6,-,N/A,,Clear,10,2013-05-26 10:55:00
7:14 AM,39.2,35.6,87,30.36,10.0,NNE,3.5,-,N/A,,Clear,20,2013-05-26 11:14:00
7:34 AM,44.6,35.6,71,30.36,10.0,NNE,3.5,-,N/A,,Clear,30,2013-05-26 11:34:00
7:55 AM,46.4,35.6,66,30.36,10.0,NE,3.5,-,N/A,,Clear,40,2013-05-26 11:55:00
8:14 AM,48.2,35.6,62,30.37,10.0,NE,3.5,-,N/A,,Clear,40,2013-05-26 12:14:00
8:35 AM,50.0,35.6,58,30.38,10.0,Calm,Calm,-,N/A,,Clear,0,2013-05-26 12:35:00
8:55 AM,53.6,35.6,51,30.39,10.0,SE,3.5,-,N/A,,Clear,130,2013-05-26 12:55:00
9:14 AM,53.6,33.8,47,30.39,10.0,ESE,6.9,-,N/A,,Clear,110,2013-05-26 13:14:00
9:35 AM,55.4,32.0,41,30.38,10.0,ESE,5.8,-,N/A,,Clear,110,2013-05-26 13:35:00
9:54 AM,55.4,32.0,41,30.38,10.0,SE,6.9,-,N/A,,Clear,130,2013-05-26 13:54:00
10:14 AM,55.4,30.2,38,30.37,10.0,ESE,6.9,-,N/A,,Clear,120,2013-05-26 14:14:00
10:35 AM,57.2,30.2,36,30.37,10.0,ESE,5.8,-,N/A,,Clear,110,2013-05-26 14:35:00
10:54 AM,57.2,30.2,36,30.37,10.0,SSE,6.9,-,N/A,,Clear,150,2013-05-26 14:54:00
11:15 AM,57.2,30.2,36,30.37,10.0,SE,6.9,-,N/A,,Clear,130,2013-05-26 15:15:00
11:35 AM,57.2,30.2,36,30.38,10.0,SSE,8.1,-,N/A,,Clear,150,2013-05-26 15:35:00
11:54 AM,57.2,30.2,36,30.37,10.0,SE,6.9,-,N/A,,Clear,140,2013-05-26 15:54:00
12:15 PM,59.0,32.0,36,30.37,10.0,SSE,5.8,-,N/A,,Clear,150,2013-05-26 16:15:00
12:35 PM,60.8,30.2,31,30.36,10.0,SSE,6.9,-,N/A,,Scattered Clouds,150,2013-05-26 16:35:00
12:54 PM,60.8,28.4,29,30.36,10.0,SSE,6.9,-,N/A,,Clear,150,2013-05-26 16:54:00
1:15 PM,60.8,32.0,34,30.36,10.0,South,8.1,-,N/A,,Clear,170,2013-05-26 17:15:00
1:34 PM,59.0,30.2,34,30.36,10.0,SSE,8.1,-,N/A,,Clear,160,2013-05-26 17:34:00
1:54 PM,60.8,33.8,36,30.35,10.0,South,8.1,-,N/A,,Clear,180,2013-05-26 17:54:00
2:15 PM,59.0,33.8,39,30.35,10.0,South,9.2,-,N/A,,Clear,190,2013-05-26 18:15:00
2:34 PM,60.8,32.0,34,30.34,10.0,South,9.2,-,N/A,,Clear,180,2013-05-26 18:34:00
2:55 PM,60.8,30.2,31,30.34,10.0,South,9.2,-,N/A,,Clear,180,2013-05-26 18:55:00
3:15 PM,59.0,32.0,36,30.33,10.0,South,8.1,-,N/A,,Clear,190,2013-05-26 19:15:00
3:34 PM,60.8,30.2,31,30.32,10.0,SSW,9.2,-,N/A,,Clear,200,2013-05-26 19:34:00
3:55 PM,59.0,32.0,36,30.32,10.0,South,8.1,-,N/A,,Clear,190,2013-05-26 19:55:00
4:15 PM,60.8,28.4,29,30.31,10.0,South,8.1,-,N/A,,Clear,180,2013-05-26 20:15:00
4:34 PM,60.8,28.4,29,30.30,10.0,SSW,8.1,-,N/A,,Clear,210,2013-05-26 20:34:00
4:55 PM,60.8,28.4,29,30.30,10.0,South,8.1,-,N/A,,Clear,170,2013-05-26 20:55:00
5:14 PM,60.8,28.4,29,30.29,10.0,South,8.1,-,N/A,,Clear,190,2013-05-26 21:14:00
5:34 PM,60.8,28.4,29,30.28,10.0,South,6.9,-,N/A,,Clear,180,2013-05-26 21:34:00
5:55 PM,60.8,26.6,27,30.28,10.0,South,8.1,-,N/A,,Clear,190,2013-05-26 21:55:00
6:14 PM,60.8,26.6,27,30.28,10.0,South,6.9,-,N/A,,Clear,190,2013-05-26 22:14:00
6:35 PM,59.0,28.4,31,30.27,10.0,SSW,5.8,-,N/A,,Clear,210,2013-05-26 22:35:00
6:55 PM,59.0,26.6,29,30.27,10.0,SSW,6.9,-,N/A,,Clear,210,2013-05-26 22:55:00
7:14 PM,57.2,26.6,31,30.26,10.0,SSW,8.1,-,N/A,,Clear,210,2013-05-26 23:14:00
7:35 PM,57.2,28.4,33,30.25,10.0,SSW,4.6,-,N/A,,Clear,210,2013-05-26 23:35:00
7:55 PM,57.2,28.4,33,30.25,10.0,SSW,4.6,-,N/A,,Clear,210,2013-05-26 23:55:00
8:14 PM,57.2,30.2,36,30.25,10.0,Calm,Calm,-,N/A,,Clear,0,2013-05-27 00:14:00
8:35 PM,57.2,28.4,33,30.24,10.0,Calm,Calm,-,N/A,,Clear,0,2013-05-27 00:35:00
8:54 PM,55.4,33.8,44,30.24,10.0,Calm,Calm,-,N/A,,Clear,0,2013-05-27 00:54:00
9:14 PM,51.8,35.6,54,30.24,10.0,Calm,Calm,-,N/A,,Clear,0,2013-05-27 01:14:00
9:35 PM,48.2,37.4,66,30.24,10.0,Calm,Calm,-,N/A,,Clear,0,2013-05-27 01:35:00
9:54 PM,46.4,37.4,71,30.24,10.0,Calm,Calm,-,N/A,,Clear,0,2013-05-27 01:54:00
10:15 PM,44.6,35.6,71,30.25,10.0,Calm,Calm,-,N/A,,Clear,0,2013-05-27 02:15:00
10:35 PM,42.8,35.6,76,30.25,10.0,Calm,Calm,-,N/A,,Clear,0,2013-05-27 02:35:00
10:54 PM,42.8,35.6,76,30.26,10.0,Calm,Calm,-,N/A,,Clear,0,2013-05-27 02:54:00
11:15 PM,39.2,33.8,81,30.26,10.0,Calm,Calm,-,N/A,,Clear,0,2013-05-27 03:15:00
11:34 PM,41.0,35.6,81,30.26,10.0,Calm,Calm,-,N/A,,Clear,0,2013-05-27 03:34:00
11:54 PM,39.2,35.6,87,30.25,10.0,Calm,Calm,-,N/A,,Clear,0,2013-05-27 03:54:00